When you browse on this site, cookies collect data to enhance your experience and personalize the content and advertising you see.
Visit our Privacy Policy to learn more. By continuing to use the site, you agree to this use of cookies and data.

Stündliche Wetter Cumaná

Heute, 16 Juli, Donnerstag

Zeit Temperatur Niederschläge Wind Luftdruck Luftfeuchtigkeit
00:00 +26°C° 0.1 mm 3 m/S 752 mmHg 94%
01:00 +26°C° 0.1 mm 3 m/S 751 mmHg 94%
02:00 +25°C° 0.1 mm 3 m/S 751 mmHg 94%
03:00 +25°C° 0 mm 3 m/S 751 mmHg 93%
04:00 +25°C° 0 mm 2 m/S 751 mmHg 93%
05:00 +25°C° 0 mm 2 m/S 751 mmHg 92%
06:00 +26°C° 0 mm 2 m/S 751 mmHg 89%
07:00 +28°C° 0 mm 1 m/S 752 mmHg 86%
08:00 +29°C° 0 mm 1 m/S 752 mmHg 83%
09:00 +31°C° 0 mm 2 m/S 752 mmHg 74%
10:00 +32°C° 0 mm 2 m/S 752 mmHg 66%
11:00 +35°C° 0 mm 2 m/S 752 mmHg 57%
12:00 +34°C° 0.5 mm 2 m/S 752 mmHg 67%
13:00 +32°C° 0.5 mm 2 m/S 751 mmHg 77%
14:00 +31°C° 0.5 mm 2 m/S 750 mmHg 86%
15:00 +31°C° 0.4 mm 2 m/S 750 mmHg 87%
16:00 +30°C° 0.4 mm 2 m/S 750 mmHg 88%
17:00 +30°C° 0.4 mm 2 m/S 749 mmHg 88%
18:00 +29°C° 0.6 mm 3 m/S 750 mmHg 91%
19:00 +28°C° 0.6 mm 3 m/S 750 mmHg 93%
20:00 +27°C° 0.6 mm 4 m/S 751 mmHg 95%
21:00 +27°C° 0 mm 4 m/S 751 mmHg 94%
22:00 +26°C° 0 mm 4 m/S 752 mmHg 93%
23:00 +26°C° 0 mm 4 m/S 752 mmHg 92%

Morgen, 17 Juli, Freitag

Zeit Temperatur Niederschläge Wind Luftdruck Luftfeuchtigkeit
00:00 +26°C° 0 mm 3 m/S 752 mmHg 90%
01:00 +25°C° 0 mm 3 m/S 751 mmHg 89%
02:00 +25°C° 0 mm 3 m/S 751 mmHg 88%
03:00 +25°C° 0 mm 3 m/S 751 mmHg 87%
04:00 +25°C° 0 mm 3 m/S 751 mmHg 87%
05:00 +25°C° 0 mm 3 m/S 751 mmHg 86%
06:00 +27°C° 0 mm 2 m/S 751 mmHg 82%
07:00 +28°C° 0 mm 2 m/S 752 mmHg 78%
08:00 +30°C° 0 mm 1 m/S 752 mmHg 74%
09:00 +31°C° 0 mm 2 m/S 752 mmHg 68%
10:00 +34°C° 0 mm 2 m/S 752 mmHg 62%
11:00 +35°C° 0 mm 2 m/S 752 mmHg 55%
12:00 +35°C° 0.3 mm 2 m/S 751 mmHg 61%
13:00 +34°C° 0.3 mm 2 m/S 751 mmHg 67%
14:00 +34°C° 0.3 mm 2 m/S 750 mmHg 73%
15:00 +33°C° 0.3 mm 3 m/S 750 mmHg 77%
16:00 +31°C° 0.3 mm 3 m/S 749 mmHg 81%
17:00 +30°C° 0.3 mm 3 m/S 749 mmHg 86%
18:00 +29°C° 0.6 mm 3 m/S 750 mmHg 89%
19:00 +28°C° 0.6 mm 4 m/S 750 mmHg 92%
20:00 +27°C° 0.6 mm 4 m/S 751 mmHg 95%
21:00 +27°C° 0 mm 4 m/S 751 mmHg 94%
22:00 +26°C° 0 mm 4 m/S 751 mmHg 93%
23:00 +26°C° 0 mm 4 m/S 752 mmHg 92%

übermorgen, 18 Juli, Samstag

Zeit Temperatur Niederschläge Wind Luftdruck Luftfeuchtigkeit
00:00 +26°C° 0 mm 4 m/S 751 mmHg 92%
01:00 +26°C° 0 mm 3 m/S 751 mmHg 91%
02:00 +25°C° 0 mm 3 m/S 751 mmHg 90%
03:00 +25°C° 0 mm 3 m/S 751 mmHg 89%
04:00 +25°C° 0 mm 2 m/S 751 mmHg 87%
05:00 +25°C° 0 mm 2 m/S 751 mmHg 86%
06:00 +27°C° 0 mm 2 m/S 751 mmHg 82%
07:00 +28°C° 0 mm 1 m/S 751 mmHg 78%
08:00 +30°C° 0 mm 1 m/S 752 mmHg 74%
09:00 +31°C° 0 mm 1 m/S 752 mmHg 69%
10:00 +32°C° 0 mm 2 m/S 752 mmHg 64%
11:00 +35°C° 0 mm 2 m/S 752 mmHg 59%
12:00 +34°C° 0.4 mm 2 m/S 751 mmHg 68%
13:00 +32°C° 0.4 mm 2 m/S 750 mmHg 76%
14:00 +31°C° 0.4 mm 2 m/S 750 mmHg 85%
15:00 +31°C° 0.8 mm 2 m/S 749 mmHg 87%
16:00 +30°C° 0.8 mm 2 m/S 749 mmHg 89%
17:00 +30°C° 0.8 mm 2 m/S 749 mmHg 92%
18:00 +29°C° 0.3 mm 3 m/S 749 mmHg 93%
19:00 +28°C° 0.3 mm 3 m/S 749 mmHg 95%
20:00 +27°C° 0.3 mm 4 m/S 750 mmHg 97%
21:00 +26°C° 0 mm 4 m/S 750 mmHg 96%
22:00 +26°C° 0 mm 4 m/S 751 mmHg 94%
23:00 +26°C° 0 mm 4 m/S 751 mmHg 93%

19 Juli, Sonntag

Zeit Temperatur Niederschläge Wind Luftdruck Luftfeuchtigkeit
00:00 +26°C° 0 mm 3 m/S 751 mmHg 93%
01:00 +26°C° 0 mm 3 m/S 751 mmHg 92%
02:00 +26°C° 0 mm 3 m/S 750 mmHg 92%
03:00 +26°C° 0 mm 3 m/S 750 mmHg 91%
04:00 +25°C° 0 mm 2 m/S 750 mmHg 91%
05:00 +25°C° 0 mm 2 m/S 750 mmHg 90%
06:00 +27°C° 0 mm 2 m/S 750 mmHg 86%
07:00 +28°C° 0 mm 1 m/S 751 mmHg 82%
08:00 +30°C° 0 mm 1 m/S 751 mmHg 79%
09:00 +31°C° 0 mm 2 m/S 751 mmHg 73%
10:00 +32°C° 0 mm 2 m/S 751 mmHg 67%
11:00 +35°C° 0 mm 3 m/S 751 mmHg 62%
12:00 +34°C° 0.6 mm 2 m/S 751 mmHg 69%
13:00 +32°C° 0.6 mm 2 m/S 750 mmHg 77%
14:00 +31°C° 0.6 mm 2 m/S 749 mmHg 85%
15:00 +31°C° 0.8 mm 2 m/S 749 mmHg 87%
16:00 +30°C° 0.8 mm 2 m/S 749 mmHg 90%
17:00 +30°C° 0.8 mm 2 m/S 748 mmHg 92%
18:00 +29°C° 0.4 mm 3 m/S 749 mmHg 93%
19:00 +28°C° 0.4 mm 3 m/S 749 mmHg 94%
20:00 +27°C° 0.4 mm 4 m/S 750 mmHg 95%
21:00 +26°C° 0 mm 4 m/S 750 mmHg 94%
22:00 +26°C° 0 mm 4 m/S 751 mmHg 94%
23:00 +26°C° 0 mm 4 m/S 751 mmHg 93%

20 Juli, Montag

Zeit Temperatur Niederschläge Wind Luftdruck Luftfeuchtigkeit
00:00 +26°C° 0 mm 3 m/S 751 mmHg 92%
01:00 +25°C° 0 mm 3 m/S 750 mmHg 92%
02:00 +25°C° 0 mm 3 m/S 750 mmHg 91%
03:00 +25°C° 0 mm 3 m/S 750 mmHg 90%
04:00 +25°C° 0 mm 3 m/S 750 mmHg 89%
05:00 +25°C° 0 mm 3 m/S 750 mmHg 87%
06:00 +26°C° 0 mm 2 m/S 750 mmHg 83%
07:00 +27°C° 0 mm 2 m/S 751 mmHg 80%
08:00 +29°C° 0 mm 2 m/S 751 mmHg 76%
09:00 +30°C° 0 mm 2 m/S 751 mmHg 69%
10:00 +32°C° 0 mm 2 m/S 751 mmHg 62%
11:00 +35°C° 0 mm 2 m/S 751 mmHg 55%
12:00 +34°C° 0.1 mm 2 m/S 751 mmHg 61%
13:00 +34°C° 0.1 mm 2 m/S 750 mmHg 67%
14:00 +34°C° 0.1 mm 2 m/S 750 mmHg 73%
15:00 +31°C° 0.3 mm 3 m/S 750 mmHg 79%
16:00 +30°C° 0.3 mm 3 m/S 749 mmHg 85%
17:00 +29°C° 0.3 mm 3 m/S 749 mmHg 91%
18:00 +28°C° 0.4 mm 3 m/S 749 mmHg 92%
19:00 +27°C° 0.4 mm 4 m/S 750 mmHg 94%
20:00 +26°C° 0.4 mm 4 m/S 750 mmHg 96%
21:00 +26°C° 0.2 mm 4 m/S 751 mmHg 95%
22:00 +26°C° 0.2 mm 4 m/S 751 mmHg 94%
23:00 +26°C° 0.2 mm 4 m/S 752 mmHg 93%

21 Juli, Dienstag

Zeit Temperatur Niederschläge Wind Luftdruck Luftfeuchtigkeit
00:00 +26°C° 0 mm 3 m/S 751 mmHg 93%
01:00 +25°C° 0 mm 3 m/S 751 mmHg 92%
02:00 +25°C° 0 mm 3 m/S 750 mmHg 92%
03:00 +25°C° 0 mm 3 m/S 750 mmHg 91%
04:00 +25°C° 0 mm 2 m/S 750 mmHg 90%
05:00 +25°C° 0 mm 2 m/S 750 mmHg 89%
06:00 +26°C° 0 mm 2 m/S 751 mmHg 86%
07:00 +28°C° 0 mm 2 m/S 751 mmHg 83%
08:00 +29°C° 0 mm 1 m/S 751 mmHg 79%
09:00 +30°C° 0.1 mm 2 m/S 751 mmHg 77%
10:00 +31°C° 0.1 mm 2 m/S 752 mmHg 74%
11:00 +32°C° 0.1 mm 2 m/S 752 mmHg 71%
12:00 +31°C° 1.3 mm 2 m/S 752 mmHg 77%
13:00 +31°C° 1.3 mm 2 m/S 751 mmHg 83%
14:00 +30°C° 1.3 mm 3 m/S 751 mmHg 89%
15:00 +30°C° 1.1 mm 3 m/S 750 mmHg 89%
16:00 +30°C° 1.1 mm 3 m/S 750 mmHg 89%
17:00 +30°C° 1.1 mm 4 m/S 750 mmHg 89%
18:00 +28°C° 0.5 mm 4 m/S 750 mmHg 91%
19:00 +27°C° 0.5 mm 4 m/S 751 mmHg 93%
20:00 +26°C° 0.5 mm 5 m/S 751 mmHg 95%
21:00 +25°C° 0 mm 5 m/S 751 mmHg 91%
22:00 +23°C° 0 mm 4 m/S 752 mmHg 87%
23:00 +22°C° 0 mm 4 m/S 752 mmHg 83%
Mehr zeigen